Other Public Products
Issued by NWS Grand Forks, ND

Home | Current Version | Previous Version | Text Only | Print | Product List | Glossary Off
Versions: 1 2 3 4 5 6 7 8 9 10 11 12 13 14 15 16 17 18 19 20 21 22 23 24 25 26 27 28 29 30 31 32 33 34 35 36 37 38 39 40 41 42 43 44 45 46 47 48 49 50

000
FPUS83 KFGF 211831
OPUFGF
PRAIRIE TO PINES WEATHER ROUNDUP
NATIONAL WEATHER SERVICE EASTERN NORTH DAKOTA/GRAND FORKS ND
100 PM CDT THU AUG 21 2014

 **SATELLITE DATA USED TO AUGMENT SKY COVER AT AUTOMATED STATIONS**
 *****  WEATHER ACROSS EASTERN NORTH DAKOTA  *****

CITY           SKY/WX    TMP DP  RH WIND       PRES   REMARKS
GRAND FORKS    CLOUDY    75  68  78 CALM      29.77S
6HR MIN TEMP:  69; 6HR MAX TEMP:  75; 6HR PCP: TRACE;

GRAND FORKS AF CLOUDY    73  72  96 VRB1      29.79S
GRAND CITY NWS   N/A     59 N/A N/A W5          N/A
BUXTON           N/A     75  73  92 SE6         N/A
DEVILS LAKE    CLOUDY    73  64  73 CALM      29.79S
6HR MIN TEMP:  68; 6HR MAX TEMP:  73;

FARGO          PTSUNNY   77  68  73 SE6       29.76R
6HR MIN TEMP:  69; 6HR MAX TEMP:  77; 6HR PCP: TRACE;

WAHPETON ARPT  MOCLDY    77  64  65 CALM      29.77R
$$

 *****  WEATHER ACROSS CENTRAL AND WESTERN NORTH DAKOTA  *****

CITY           SKY/WX    TMP DP  RH WIND       PRES   REMARKS
JAMESTOWN      PTSUNNY   76  67  73 NW8       29.78F
6HR MIN TEMP:  68; 6HR MAX TEMP:  77;

BISMARCK       MOSUNNY   78  65  63 N13G18    29.86S
6HR MIN TEMP:  65; 6HR MAX TEMP:  78;

MINOT          CLOUDY    68  62  81 NW8       29.87R
6HR MIN TEMP:  62; 6HR MAX TEMP:  70;

MINOT AFB      CLOUDY    69  66  88 NW14      29.86S
6HR MIN TEMP:  59; 6HR MAX TEMP:  69;

GARRISON         N/A     76  63  64 NW14      29.87R
6HR MIN TEMP:  64; 6HR MAX TEMP:  76;

WILLISTON      CLOUDY    67  59  75 N13       29.96R
6HR MIN TEMP:  55; 6HR MAX TEMP:  67;

DICKINSON      SUNNY     74  60  61 VRB6      29.92S
6HR MIN TEMP:  55; 6HR MAX TEMP:  75;

HETTINGER      SUNNY     77  59  53 NW7       29.94S
6HR MIN TEMP:  53; 6HR MAX TEMP:  78;

$$

 *****  OTHER OBSERVATIONS NORTHEAST NORTH DAKOTA  *****

CITY           SKY/WX    TMP DP  RH WIND       PRES   REMARKS
WALHALLA         N/A     72  72 100 E5        29.81R
LANGDON        CLOUDY    70  66  88 NE3       29.82S
CAVALIER       CLOUDY    72  66  83 E6        29.80S
GRAFTON        CLOUDY    73  68  83 SE6       29.79S
CANDO          CLOUDY    72  66  83 NE6       29.82S
FORT TOTTEN      N/A     79  72  78 N5        29.95S
ROLLA          CLOUDY    70  70 100 N9        29.85S
RUGBY          FAIR      72  68  88 NW7       29.83R
 ***** THE ABOVE OBSERVATIONS ARE NON NWS ARE NOT QUALITY
        CONTROLLED AND MAY MIS-REPORT RAIN FOR SNOW...
$$

 *****  OTHER OBSERVATIONS SOUTHEAST NORTH DAKOTA *****

CITY           SKY/WX    TMP DP  RH WIND       PRES   REMARKS
COOPERSTOWN    NOT AVBL
VALLEY CITY    CLOUDY    73  73 100 NE5       29.79R
OAKES          NOT AVBL
GWINNER        CLOUDY    81  70  69 N7        29.78S
SHEYENNE NWR     N/A     77  69  76 NW6       29.95S
BUFFALO          N/A     76  65  67 SE2         N/A
WYNDMERE       NOT AVBL
 ***** THE ABOVE OBSERVATIONS ARE NON NWS ARE NOT QUALITY
       CONTROLLED AND MAY MIS-REPORT RAIN FOR SNOW...
$$

  *****  WEATHER ACROSS NORTHERN MINNESOTA  *****

CITY           SKY/WX    TMP DP  RH WIND       PRES   REMARKS
FLAG ISLAND    CLOUDY    66  61  82 E6        29.85S
WARROAD        CLOUDY    66  63  88 E9        29.85S
ROSEAU         PTSUNNY   68  63  83 E5        29.84R
HALLOCK        PTSUNNY   72  66  83 E8        29.80R
THF RVR FALLS  CLOUDY    75  66  73 S5        29.80R
6HR MIN TEMP:  64; 6HR MAX TEMP:  75;

HALSTAD          N/A     74  66  76 E6          N/A
FOSSTON        CLOUDY    75  64  69 S5        29.81S
BAUDETTE       CLOUDY    66  62  87 E9        29.85S
6HR MIN TEMP:  60; 6HR MAX TEMP:  67; 6HR PCP: TRACE;

WASKISH        PTSUNNY   73  64  73 CALM      29.84S
CROOKSTON      PTSUNNY   77  66  69 SW5       29.79R
$$
  *****  WEATHER ACROSS CENTRAL AND WEST MINNESOTA  *****

CITY           SKY/WX    TMP DP  RH WIND       PRES   REMARKS
BEMIDJI        CLOUDY    70  64  81 SE9       29.84R
PARK RAPIDS    CLOUDY    73  67  81 E7        29.81S
6HR MIN TEMP:  65; 6HR MAX TEMP:  74; 6HR PCP: TRACE;

WADENA         CLOUDY    72  66  83 E7        29.80S
DETROIT LAKES  PTSUNNY   72  66  83 SE7       29.81S
MOORHEAD       PTSUNNY   77  72  83 E9        29.77S
FERGUS FALLS   CLOUDY    73  68  83 E7        29.76F
ELBOW LAKE     CLOUDY    74  70  86 E3        29.77S
6HR MIN TEMP:  67; 6HR MAX TEMP:  73;

MORRIS MN      SUNNY     81  70  69 NW7       29.76R
STAPLES        CLOUDY    72  66  83 E5        29.81S
WHEATON        MOSUNNY   75  68  78 NW6       29.78R
$$
  *****  WEATHER ELSEWHERE ACROSS MINNESOTA  *****

CITY           SKY/WX    TMP DP  RH WIND       PRES   REMARKS
DULUTH         CLOUDY    65  60  84 E14       29.89R
6HR MIN TEMP:  60; 6HR MAX TEMP:  66; 6HR PCP: TRACE;

INTRNTL FALLS  CLOUDY    68  60  75 E10       29.88S
6HR MIN TEMP:  59; 6HR MAX TEMP:  70;

ELY            CLOUDY    66  57  72 E12       29.92R
CLOQUET        CLOUDY    64  61  88 E12       29.88S
BRAINERD       CLOUDY    68  65  90 E7        29.82F
6HR MIN TEMP:  63; 6HR MAX TEMP:  71; 6HR PCP:  0.05;

HIBBING        CLOUDY    72  62  71 SE14      29.88S
6HR MIN TEMP:  61; 6HR MAX TEMP:  74;

ALEXANDRIA     CLOUDY    73  70  90 NE5       29.80S
6HR MIN TEMP:  69; 6HR MAX TEMP:  73;

SAINT CLOUD    CLOUDY    74  69  85 E6        29.78S
6HR MIN TEMP:  68; 6HR MAX TEMP:  74; 6HR PCP: TRACE;

MINNEAPOLIS    PTSUNNY   82  71  69 SE8       29.76F
6HR MIN TEMP:  70; 6HR MAX TEMP:  82; 6HR PCP:  0.04;

$$

  *****  WEATHER ACROSS SOUTH DAKOTA  *****

CITY           SKY/WX    TMP DP  RH WIND       PRES   REMARKS
SIOUX FALLS    PTSUNNY   86  76  71 SW8       29.78R HX  96
6HR MIN TEMP:  73; 6HR MAX TEMP:  86;

BROOKINGS      NOT AVBL
WATERTOWN      SUNNY     80  69  69 W13       29.79S
6HR MIN TEMP:  66; 6HR MAX TEMP:  80;

HURON          MOSUNNY   83  66  56 W9        29.79F
6HR MIN TEMP:  67; 6HR MAX TEMP:  83;

SISSETON         N/A     80  71  74 N6        29.75S
ABERDEEN       CLOUDY    79  68  69 NW8G17    29.79R
6HR MIN TEMP:  66; 6HR MAX TEMP:  80;

MITCHELL       MOSUNNY   83  72  69 NW10      29.80S
PIERRE         MOSUNNY   81  63  54 VRB5      29.85F
6HR MIN TEMP:  65; 6HR MAX TEMP:  81;

MOBRIDGE       SUNNY     78  65  63 NW14      29.84R
RAPID CITY       N/A     78  57  48 VRB5      29.97F
$$

  *****  SOME WEATHER IN NEARBY STATES *****

CITY           SKY/WX    TMP DP  RH WIND       PRES   REMARKS
GLASGOW MT     PTSUNNY   71  58  63 NE6       29.98S
6HR MIN TEMP:  62; 6HR MAX TEMP:  71; 6HR PCP:  0.04;

GREAT FALLS MT CLOUDY    58  51  78 N6        30.09S
6HR MIN TEMP:  54; 6HR MAX TEMP:  58;

CHEYENNE WY    MOSUNNY   79  42  26 W10G20    30.15S
6HR MIN TEMP:  58; 6HR MAX TEMP:  79;

SCOTTSBLUFF NE MOSUNNY   82  55  39 VRB3      30.02S
6HR MIN TEMP:  57; 6HR MAX TEMP:  83;

OMAHA NE       PTSUNNY   85  69  58 S12       29.82S
6HR MIN TEMP:  75; 6HR MAX TEMP:  86; 6HR PCP:  0.02;

DES MOINES IA  CLOUDY    83  73  72 S9G17     29.88S
6HR MIN TEMP:  76; 6HR MAX TEMP:  83; 6HR PCP:  0.11;

DAVENPORT IA   LGT RAIN  79  73  82 SW7       29.95R
6HR MIN TEMP:  72; 6HR MAX TEMP:  82;

CHICAGO IL     CLOUDY    77  68  73 SW3       29.96R
6HR MIN TEMP:  71; 6HR MAX TEMP:  77; 6HR PCP:  0.21;

EAU CLAIRE WI  CLOUDY    76  69  79 SE10      29.83F
6HR MIN TEMP:  66; 6HR MAX TEMP:  76; 6HR PCP:  0.17;

LA CROSSE WI   CLOUDY    79  70  74 S10       29.84S
6HR MIN TEMP:  70; 6HR MAX TEMP:  79; 6HR PCP:  0.34;

$$

  *****  SOME NATIONAL WEATHER *****

CITY           SKY/WX    TMP DP  RH WIND       PRES   REMARKS
LA GUARDIA NY  PTSUNNY   80  61  52 S7        30.04S



USA.gov is the U.S. government's official web portal to all federal, state and local government web resources and services.